Regional Weather Roundup
Issued by NWS Raleigh/Durham, NC

Home | Current Version | Previous Version | Text Only | Print | Product List | Glossary On
Versions: 1 2 3 4 5 6 7 8 9 10 11 12 13 14 15 16 17 18 19 20 21 22 23 24 25 26 27 28
000
ASUS42 KRAH 282110
RWRRAH
NORTH CAROLINA WEATHER ROUNDUP
NATIONAL WEATHER SERVICE RALEIGH NC
500 PM EDT THU APR 28 2016

NOTE: "FAIR" INDICATES FEW OR NO CLOUDS BELOW 12,000 FEET WITH NO
SIGNIFICANT WEATHER AND/OR OBSTRUCTIONS TO VISIBILITY.

NCZ001-053-055-056-065-067-282200-
WESTERN NORTH CAROLINA

CITY           SKY/WX    TMP DP  RH WIND       PRES   REMARKS
ASHEVILLE      CLOUDY    79  54  41 NW10      29.89R
JEFFERSON      SUNNY     74  50  43 W18       29.92F
MORGANTON      LGT RAIN  73  67  80 CALM      29.86F
HICKORY        TSTM      77  61  57 N12G20    29.82F
RUTHERFORDTON  CLOUDY    81  58  46 S8        29.84F
MOUNT AIRY     MOSUNNY   75  67  75 NE3       29.85F
BOONE          MOSUNNY   74  52  46 NW16G28   29.94S THUNDER
$$

NCZ021-022-025-041-071-084-088-282200-
CENTRAL NORTH CAROLINA

CITY           SKY/WX    TMP DP  RH WIND       PRES   REMARKS
CHARLOTTE      MOSUNNY   83  62  49 S16G25    29.83F
GREENSBORO     PTSUNNY   79  64  60 S7        29.81F
WINSTON-SALEM  CLOUDY    81  61  50 S10       29.82F
RALEIGH-DURHAM CLOUDY    80  64  58 W5        29.82F
FORT BRAGG     MOSUNNY   85  64  48 SW12G20   29.81F
FAYETTEVILLE   PTSUNNY   87  64  46 S16G23    29.82F
BURLINGTON     CLOUDY    71  63  75 S3        29.83R
LAURINBURG     MOSUNNY   85  64  49 SW14      29.84F
$$

NCZ011-015-027-028-043-044-047-080-103-282200-
NORTHEASTERN NORTH CAROLINA

CITY           SKY/WX    TMP DP  RH WIND       PRES   REMARKS
ROCKY MT-WILSO SUNNY     84  66  54 SW8       29.83F
GREENVILLE     MOSUNNY   86  66  51 SW13      29.85F
WASHINGTON     MOSUNNY   84  66  54 SW7       29.83S
ELIZABETH CITY SUNNY     71  64  78 E6        29.88F
MANTEO         NOT AVBL
CAPE HATTERAS  MOSUNNY   72  67  84 SW15G22   29.88F
$$

NCZ078-087-090-091-093-098-101-282200-
SOUTHEASTERN NORTH CAROLINA

CITY           SKY/WX    TMP DP  RH WIND       PRES   REMARKS
LUMBERTON      MOSUNNY   84  67  56 SW13      29.85S
GOLDSBORO      MOSUNNY   86  63  45 W14       29.82F
KINSTON        MOSUNNY   86  61  42 SW10G20   29.84F
KENANSVILLE    MOSUNNY   86  58  39 SW6       29.85F
NEW BERN       PTSUNNY   86  64  47 SW9G18    29.86S
CHERRY POINT   MOSUNNY   82  69  64 S15       29.87F
BEAUFORT       SUNNY     73  67  81 SW18      29.89S
JACKSONVILLE   MOSUNNY   82  64  54 S12       29.86F
WILMINGTON     SUNNY     84  63  49 SW12      29.88S
$$





USA.gov is the U.S. government's official web portal to all federal, state and local government web resources and services.